Location: Tierra del Sol
(32.6128°N, 116.3319°W)
Time: 10:48:36
(UTC-07:00)

Vanguard 2 - Pass Details

Date: 01 May 2018
Orbit: 554 x 2938 km, 32.9° (Epoch: 20 September)

Event Time Altitude Azimuth Distance (km) Brightness Sun altitude
Rises 02:03:26 0° 281° (WNW) 4,414 - -38.5°
Reaches altitude 10° 02:07:24 10° 271° (W) 3,021 - -38.1°
Maximum altitude 02:13:05 27° 216° (SW) 1,551 - -37.6°
Drops below altitude 10° 02:17:10 10° 158° (SSE) 2,111 - -37.2°
Sets 02:19:27 0° 144° (SE) 2,872 - -36.9°
